Regional Weather Roundup
Issued by NWS Little Rock, AR

Home | Current Version | Previous Version | Graphics & Text | Print | Product List | Glossary On
Versions: 1 2 3 4 5 6 7 8 9 10 11 12 13 14 15 16 17 18 19 20 21 22 23 24 25 26 27 28 29 30 31 32 33 34 35 36
000
ASUS44 KLZK 230005
RWRLZK

WEATHER ROUNDUP FOR ARKANSAS
NATIONAL WEATHER SERVICE LITTLE ROCK AR
700 PM CDT WED OCT 22 2014

NOTE: "FAIR" INDICATES FEW OR NO CLOUDS BELOW 12,000 FEET WITH NO
SIGNIFICANT WEATHER AND/OR OBSTRUCTIONS TO VISIBILITY.

ARZ001-003-010-029-230100-
NORTHWEST ARKANSAS

CITY           SKY/WX    TMP DP  RH WIND       PRES   REMARKS
FAYETTEVILLE   MOCLDY    62  53  72 S6        30.16R
6HR MIN TEMP:  62; 6HR MAX TEMP:  75;

FORT SMITH     CLEAR     65  53  65 E7        30.13R
6HR MIN TEMP:  65; 6HR MAX TEMP:  76;

HARRISON       CLEAR     60  49  66 E5        30.17R
6HR MIN TEMP:  60; 6HR MAX TEMP:  70;

BENTONVILLE    CLOUDY    68  54  60 E7        30.15R
6HR MIN TEMP:  68; 6HR MAX TEMP:  75;

ROGERS         MOCLDY    66  54  65 E8        30.16R
6HR MIN TEMP:  66; 6HR MAX TEMP:  73;

SILOAM SPGS    PTCLDY    64  52  63 S7        30.16R
6HR MIN TEMP:  64; 6HR MAX TEMP:  75;

HIGHFILL       CLOUDY    67  56  67 S5        30.14R
6HR MIN TEMP:  66; 6HR MAX TEMP:  75;

SPRINGDALE     MOCLDY    68  54  60 SW6       30.17R
$$

ARZ004-005-016-230100-
NORTH CENTRAL ARKANSAS

CITY           SKY/WX    TMP DP  RH WIND       PRES   REMARKS
BATESVILLE     CLEAR     59  43  55 E3        30.18S
6HR MIN TEMP:  59; 6HR MAX TEMP:  70;

FLIPPIN        CLEAR     61  45  55 E5        30.16F
6HR MIN TEMP:  61; 6HR MAX TEMP:  70;

MTN HOME       CLEAR     58  47  66 E3        30.16S
6HR MIN TEMP:  58; 6HR MAX TEMP:  68;

$$

ARZ040-041-230100-
WEST CENTRAL ARKANSAS

CITY           SKY/WX    TMP DP  RH WIND       PRES   REMARKS
MENA           MOCLDY    63  57  82 CALM      30.15R
MOUNT IDA      CLEAR     60  55  83 CALM      30.14R
6HR MIN TEMP:  60; 6HR MAX TEMP:  74;

$$

ARZ009-017-025-026-028-230100-
NORTHEAST ARKANSAS

CITY           SKY/WX    TMP DP  RH WIND       PRES   REMARKS
CORNING        FAIR      55  43  62 NE8       30.20F HAZE
JONESBORO      CLEAR     55  45  68 CALM      30.19S
6HR MIN TEMP:  55; 6HR MAX TEMP:  67;

NEWPORT        LGT RAIN  57  47  69 MISG      30.19S
6HR MIN TEMP:  58; 6HR MAX TEMP:  68; 6HR PCP: TRACE;

WALNUT RIDGE   CLEAR     57  41  54 NE6       30.19S
6HR MIN TEMP:  57; 6HR MAX TEMP:  66;

BLYTHEVILLE    CLEAR     56  45  66 NE5       30.19S
6HR MIN TEMP:  56; 6HR MAX TEMP:  70;

$$

ARZ022-023-033-042-044-230100-
CENTRAL ARKANSAS

CITY           SKY/WX    TMP DP  RH WIND       PRES   REMARKS
LITTLE ROCK    CLEAR     59  47  64 NE6       30.16S
6HR MIN TEMP:  59; 6HR MAX TEMP:  73;

N LITTLE ROCK  CLEAR     60  50  68 E6        30.16S
6HR MIN TEMP:  59; 6HR MAX TEMP:  71;

JACKSONVILLE   CLEAR     59  47  65 E2        30.16S
6HR MIN TEMP:  58; 6HR MAX TEMP:  71;

SEARCY         CLEAR     59  44  57 E5        30.18F
6HR MIN TEMP:  59; 6HR MAX TEMP:  70;

HOT SPRINGS    CLEAR     64  50  60 CALM      30.15R
6HR MIN TEMP:  64; 6HR MAX TEMP:  73;

RUSSELLVILLE   CLEAR     60  53  77 CALM      30.14S
6HR MIN TEMP:  60; 6HR MAX TEMP:  72;

$$

ARZ036-230100-
EAST ARKANSAS

CITY           SKY/WX    TMP DP  RH WIND       PRES   REMARKS
WEST MEMPHIS   CLEAR     57  45  64 N3        30.17R
6HR MIN TEMP:  57; 6HR MAX TEMP:  69;

$$

ARZ050-053-066-070-073-230100-
SOUTHWEST ARKANSAS

CITY           SKY/WX    TMP DP  RH WIND       PRES   REMARKS
ARKADELPHIA    FAIR      64  56  75 CALM      30.15R
6HR MIN TEMP:  64; 6HR MAX TEMP:  74; 6HR PCP: TRACE;

CAMDEN         CLEAR     61  52  72 CALM      30.13R
TEXARKANA      CLEAR     65  53  65 NE3       30.13R
6HR MIN TEMP:  65; 6HR MAX TEMP:  76;

EL DORADO      CLEAR     63  53  70 N3        30.12R
6HR MIN TEMP:  63; 6HR MAX TEMP:  76;

DE QUEEN       CLEAR     63  56  78 CALM      30.11S
6HR MIN TEMP:  63; 6HR MAX TEMP:  76;

$$

ARZ056-057-069-230100-
SOUTHEAST ARKANSAS

CITY           SKY/WX    TMP DP  RH WIND       PRES   REMARKS
PINE BLUFF     CLEAR     61  46  57 NE6       30.14F
6HR MIN TEMP:  61; 6HR MAX TEMP:  72;

STUTTGART      PTCLDY    57  45  62 NE8       30.17S
6HR MIN TEMP:  57; 6HR MAX TEMP:  70;

MONTICELLO     CLEAR     61  50  67 NE3       30.13S
6HR MIN TEMP:  61; 6HR MAX TEMP:  74;


$$





USA.gov is the U.S. government's official web portal to all federal, state and local government web resources and services.